Torna al catalogo

STARLINK-1008

AttivoComunicazioniVLEO
NORAD 44714·PAYLOAD·🇺🇸 United States

Lanciato Nov 11, 2019 da Cape Canaveral Space Force Station

Loading…

Prossimi Passaggi (prossime 24 ore)

TLE

AggiornatoSource: CelesTrak SupGP

Epoca: Sep 14, 2026, 19:21 UTC

1 44714C 19074B   26257.80673611  .00039508  00000+0  39876-3 0  2572
2 44714  53.1471 354.8764 0002159  70.9806 155.6906 15.64682999    19

Traccia STARLINK-1008 in tempo reale con AllMySat

Download on the App Store